Weather History for LIRN - September, 2011

Change the Weather History Date:

Saturday, September 3, 2011

  Actual Average Record
Temperature  
Mean Temperature 83 °F -  
Max Temperature 95 °F 78 °F 95 °F (2011)
Min Temperature 71 °F 59 °F 60 °F (1999)
Cooling Degree Days 18    
Growing Degree Days 33 (Base 50)    
Moisture  
Dew Point 60 °F    
Average Humidity 47    
Maximum Humidity 65    
Minimum Humidity 16    
Precipitation  
Precipitation 0.00 in 0.11 in - ()
Sea Level Pressure  
Sea Level Pressure 29.94 in    
Wind  
Wind Speed 3 mph ()    
Max Wind Speed 10 mph    
Max Gust Speed -    
Visibility 7.1 miles    
Events      
Averages and records for this station are not official NWS values.
T = Trace of Precipitation, MM = Missing Value Source: Averaged Metar Reports

Daily Weather History Graph

Daily Weather History Graph

Search for Another Location

Airport or City:

Trip Planner

Search our weather history database for the weather conditions in past years. The results will help you decide how hot, cold, wet, or windy it might be!

Date:

Astronomy

Sep. 03, 2011 Rise Set
Actual Time 6:31 AM CEST 7:32 PM CEST
Civil Twilight 6:02 AM CEST 8:00 PM CEST
Nautical Twilight 5:29 AM CEST 8:34 PM CEST
Astronomical Twilight 4:54 AM CEST 9:09 PM CEST
Moon 12:56 PM CEST (9/3) 10:38 PM CEST (9/3)
Length of Visible Light 13h 57m
Length of Day
13h 01m
Waxing Crescent, 35% of the Moon is Illuminated
Sep 3
Waxing Crescent
Sep 4
First Quarter
Sep 12
Full
Sep 20
Last Quarter
Sep 27
New

Hourly Weather History & Observations

Time (CEST) Temp. Heat Index Dew Point Humidity Pressure Visibility Wind Dir Wind Speed Gust Speed Precip Events Conditions
12:20 AM 77.0 °F - 62.6 °F 61% 29.95 in - NNW 2.3 mph - N/A   Clear
12:50 AM 75.2 °F - 62.6 °F 65% 29.95 in - NNW 1.2 mph - N/A   Clear
1:20 AM 77.0 °F - 60.8 °F 57% 29.95 in - WNW 2.3 mph - N/A   Clear
1:50 AM 77.0 °F - 60.8 °F 57% 29.95 in - South 3.5 mph - N/A   Clear
2:00 AM 76 °F - 62 °F 52% 29.94 in 12 mi South 2.3 mph - -  
2:20 AM 75.2 °F - 62.6 °F 65% 29.95 in - Calm Calm - N/A   Clear
2:50 AM 75.2 °F - 59.0 °F 57% 29.95 in - West 2.3 mph - N/A   Clear
3:20 AM 75.2 °F - 59.0 °F 57% 29.95 in - Variable 2.3 mph - N/A   Clear
3:50 AM 75.2 °F - 60.8 °F 61% 29.95 in 6.2 mi NE 3.5 mph - N/A   Partly Cloudy
4:20 AM 75.2 °F - 60.8 °F 61% 29.95 in 6.2 mi East 3.5 mph - N/A   Scattered Clouds
4:50 AM 73.4 °F - 60.8 °F 65% 29.95 in 6.2 mi Calm Calm - N/A   Partly Cloudy
5:00 AM 73 °F - 60 °F 55% 29.96 in 12 mi West 2.3 mph - -  
5:50 AM 75.2 °F - 60.8 °F 61% 29.98 in 6.2 mi Variable 2.3 mph - N/A   Partly Cloudy
6:20 AM 75.2 °F - 60.8 °F 61% 29.98 in 6.2 mi Variable 2.3 mph - N/A   Partly Cloudy
6:50 AM 73.4 °F - 59.0 °F 61% 29.98 in 6.2 mi Variable 2.3 mph - N/A   Partly Cloudy
7:20 AM 73.4 °F - 60.8 °F 65% 29.95 in 6.2 mi ENE 4.6 mph - N/A   Mostly Cloudy
7:50 AM 77.0 °F - 60.8 °F 57% 29.95 in 6.2 mi Variable 2.3 mph - N/A   Mostly Cloudy
8:00 AM 77 °F - 60 °F 46% 29.96 in 12 mi NE 3.5 mph - -   Mostly Cloudy
8:20 AM 77.0 °F - 59.0 °F 54% 29.95 in 6.2 mi NE 4.6 mph - N/A   Scattered Clouds
8:50 AM 78.8 °F - 57.2 °F 47% 29.95 in 6.2 mi Variable 4.6 mph - N/A   Scattered Clouds
9:20 AM 82.4 °F 81.7 °F 55.4 °F 39% 29.92 in 6.2 mi NNE 4.6 mph - N/A   Scattered Clouds
9:50 AM 84.2 °F 82.8 °F 53.6 °F 35% 29.92 in 6.2 mi North 4.6 mph - N/A   Scattered Clouds
10:20 AM 86.0 °F - 51.8 °F 31% 29.92 in 6.2 mi NNE 6.9 mph - N/A   Scattered Clouds
10:50 AM 87.8 °F - 50.0 °F 27% 29.92 in 6.2 mi NNE 4.6 mph - N/A   Scattered Clouds
11:00 AM 89 °F - 49 °F 16% 29.93 in 12 mi North 3.5 mph - -   Mostly Cloudy
11:20 AM 91.4 °F - 51.8 °F 26% 29.95 in 6.2 mi Variable 2.3 mph - N/A   Scattered Clouds
11:50 AM 91.4 °F - 51.8 °F 26% 29.95 in 6.2 mi Variable 3.5 mph - N/A   Scattered Clouds
12:20 PM 91.4 °F - 51.8 °F 26% 29.95 in 6.2 mi SSW 9.2 mph - N/A   Scattered Clouds
12:50 PM 89.6 °F 91.1 °F 64.4 °F 43% 29.95 in 6.2 mi South 10.4 mph - N/A   Scattered Clouds
1:20 PM 89.6 °F 89.5 °F 60.8 °F 38% 29.92 in 6.2 mi South 8.1 mph - N/A   Scattered Clouds
1:50 PM 87.8 °F 90.4 °F 66.2 °F 49% 29.92 in 6.2 mi South 8.1 mph - N/A   Scattered Clouds
2:20 PM 91.4 °F 91.4 °F 60.8 °F 36% 29.92 in 6.2 mi South 6.9 mph - N/A   Scattered Clouds
2:50 PM 95.0 °F 94.4 °F 59.0 °F 30% 29.92 in 6.2 mi Variable 3.5 mph - N/A   Scattered Clouds
3:20 PM 89.6 °F 91.1 °F 64.4 °F 43% 29.92 in 6.2 mi South 9.2 mph - N/A   Scattered Clouds
3:50 PM 87.8 °F 87.6 °F 60.8 °F 40% 29.92 in 6.2 mi South 9.2 mph - N/A   Scattered Clouds
4:20 PM 89.6 °F 92.2 °F 66.2 °F 46% 29.95 in 6.2 mi South 4.6 mph - N/A   Scattered Clouds
4:50 PM 87.8 °F 87.1 °F 59.0 °F 38% 29.95 in 6.2 mi WNW 6.9 mph - N/A   Scattered Clouds
5:00 PM 87 °F - 57 °F 26% 29.94 in 12 mi WNW 5.8 mph - -   Partly Cloudy
5:20 PM 87.8 °F 86.1 °F 55.4 °F 33% 29.95 in 6.2 mi NNW 5.8 mph - N/A   Scattered Clouds
5:50 PM 87.8 °F 86.5 °F 57.2 °F 35% 29.95 in 6.2 mi NW 6.9 mph - N/A   Scattered Clouds
6:20 PM 86.0 °F 86.1 °F 60.8 °F 43% 29.95 in 6.2 mi NW 6.9 mph - N/A   Scattered Clouds
6:50 PM 84.2 °F 83.8 °F 59.0 °F 42% 29.95 in 6.2 mi NW 6.9 mph - N/A   Scattered Clouds
7:20 PM 84.2 °F 85.0 °F 62.6 °F 48% 29.95 in 6.2 mi Variable 5.8 mph - N/A   Scattered Clouds
7:50 PM 82.4 °F 83.4 °F 62.6 °F 51% 29.95 in - NNW 3.5 mph - N/A   Clear
8:20 PM 82.4 °F 83.4 °F 62.6 °F 51% 29.95 in - Variable 2.3 mph - N/A   Clear
8:50 PM 82.4 °F 83.4 °F 62.6 °F 51% 29.92 in - NNE 4.6 mph - N/A   Clear
9:20 PM 80.6 °F 81.8 °F 62.6 °F 54% 29.95 in - Variable 2.3 mph - N/A   Clear
9:50 PM 80.6 °F 81.8 °F 62.6 °F 54% 29.92 in - Variable 2.3 mph - N/A   Clear
10:20 PM 78.8 °F - 60.8 °F 54% 29.95 in - West 2.3 mph - N/A   Clear
10:50 PM 78.8 °F - 60.8 °F 54% 29.95 in - Variable 1.2 mph - N/A   Clear
11:00 PM 78 °F - 62 °F 49% 29.95 in 12 mi West 3.5 mph - -  
11:20 PM 77.0 °F - 62.6 °F 61% 29.95 in - Variable 2.3 mph - N/A   Clear
11:50 PM 78.8 °F - 62.6 °F 57% 29.95 in - Variable 2.3 mph - N/A   Clear